Home > Weather > Manizales > Past weeks

Flag for Colombia Past Weather in Manizales, Colombia — Yesterday and Last 2 Weeks

Now
72 °F

Passing clouds.


Feels Like: 72 °F
Forecast: 54 / 76 °F
Wind: 6 mph from Southeast

Location: Pereira / Matecana

Current Time: Jul 25, 2016 at 9:48:51 PM

Latest Report: Jul 25, 2016 at 9:00 PM


Visibility: N/A

Pressure: 30.02 "Hg (23.43 "Hg at 2139m altitude)

Humidity: 78%

Dew Point: 64 °F

Location of ManizalesLocation

Past Weather in Manizales — Graph

°F

Manizales Temperature Yesterday

Maximum temperature yesterday: 77 °F (at 12:00 PM)
Minimum temperature yesterday: 64 °F (at 5:00 AM)
Average temperature yesterday: 70 °F

High & Low Weather Summary for the Past Weeks

 TemperatureHumidityPressure
High84 °F (Jul 11, 4:00 PM)100% (Jul 14, 5:00 AM)30.16 "Hg (Jul 14, 5:00 AM)
Low63 °F (Jul 16, 5:00 AM)54% (Jul 13, 4:00 PM)29.96 "Hg (Jul 25, 5:00 PM)
Average72 °F78%30.07 "Hg
* Reported Jul 10 9:00 PM — Jul 25 9:00 PM, Manizales, Weather by CustomWeather, © 2016

Note: Actual official high and low records may vary slightly from our data, if they occured in-between our weather recording intervals... More about our weather records

Advertising

Manizales Weather History for the Previous 24 Hours

Scroll right to see more
 ConditionsComfort  
Time TempWeatherWind HumidityBarometerVisibility
9:00 PM
Mon, Jul 25
72 °FPassing clouds.6 mph78%30.02 "HgN/A
8:00 PM72 °FPassing clouds.12 mph83%30.01 "HgN/A
7:00 PM73 °FPassing clouds.6 mph74%30.00 "HgN/A
6:00 PM75 °FScattered clouds.5 mph69%29.98 "HgN/A
5:00 PM75 °FScattered clouds.5 mph69%29.96 "HgN/A
4:00 PM79 °FScattered clouds.9 mph61%29.97 "HgN/A
3:00 PM79 °FPassing clouds.6 mph61%29.98 "HgN/A
2:00 PM79 °FPassing clouds.7 mph61%30.01 "HgN/A
1:00 PM73 °FPassing clouds.2 mph83%30.06 "HgN/A
12:00 PM75 °FScattered clouds.8 mph78%30.09 "HgN/A
11:00 AM70 °FScattered clouds.3 mph88%30.12 "Hg2 mi
10:00 AM66 °FPartly sunny.6 mph94%30.15 "Hg1 mi
9:00 AM64 °FDrizzle. Partly sunny.5 mph100%30.14 "Hg1 mi
8:00 AM66 °FBroken clouds.2 mph94%30.12 "Hg1 mi
7:00 AM64 °FBroken clouds.2 mph94%30.12 "Hg1 mi
6:00 AM64 °FBroken clouds.2 mph94%30.08 "Hg2 mi
5:00 AM64 °FPassing clouds.2 mph94%30.06 "Hg3 mi
12:00 AM66 °FPassing clouds.2 mph83%30.09 "HgN/A
11:00 PM
Sun, Jul 24
68 °FPassing clouds.5 mph78%30.09 "HgN/A
10:00 PM68 °FPassing clouds.9 mph78%30.09 "HgN/A
9:00 PM68 °FPassing clouds.7 mph83%30.08 "HgN/A
Weather by CustomWeather, © 2016

See weather overviewHow to use our weather pages